Overview Statistics Trail Chart Weather Telemetry Raw packets
 

This is the latest recevied weather packets stored in our database for station/object IU1OPQ-3. If no packets are shown the sender has not sent any weather packets the latest 10 day(s).

<< 3 4 5 6 7 8 9 >>
Time Temp. Humidity Pressure Rain* Wind** Luminosity Snow
1788417600 21.11° C 72% 1020.7 hPa 0 mm - - -
1788416401 21.11° C 73% 1020.5 hPa 0 mm - - -
1788415200 21.11° C 74% 1020.6 hPa 0 mm - - -
1788414000 21.11° C 74% 1020.2 hPa 0 mm - - -
1788412807 21.11° C 73% 1020.2 hPa 0 mm - - -
1788411601 21.11° C 74% 1019.8 hPa 0 mm - - -
1788410401 21.11° C 74% 1019.8 hPa 0 mm - - -
1788409201 21.67° C 73% 1019.7 hPa 0 mm - - -
1788408000 21.67° C 74% 1019.8 hPa 0 mm - - -
1788406800 21.67° C 74% 1019.6 hPa 0 mm - - -
1788405601 21.67° C 73% 1019.5 hPa 0 mm - - -
1788404401 21.67° C 73% 1019.5 hPa 0 mm - - -
1788403201 22.22° C 71% 1019.5 hPa 0 mm - - -
1788402001 21.67° C 74% 1019.6 hPa 0 mm - - -
1788400801 22.22° C 73% 1019.6 hPa 0 mm - - -
1788399600 22.78° C 71% 1019.6 hPa 0 mm - - -
1788398401 22.22° C 72% 1019.6 hPa 0 mm - - -
1788397200 22.78° C 72% 1019.6 hPa 0 mm - - -
1788396000 22.78° C 74% 1019.4 hPa 0 mm - - -
1788394800 22.78° C 74% 1019.6 hPa 0 mm - - -
1788393601 23.33° C 74% 1019.5 hPa 0 mm - - -
1788392400 23.33° C 73% 1019.4 hPa 0 mm - - -
1788391200 23.33° C 72% 1019.5 hPa 0 mm - - -
1788390001 23.89° C 72% 1019.3 hPa 0 mm - - -
1788388801 23.33° C 72% 1019.4 hPa 0 mm - - -

* Rain latest hour (hover to see other rain measurements)
** Current wind speed in m/s (hover to see current wind gust speed)